Orbital elements:
2016 SE17                                                Earth MOID = 0.1818 AU
Epoch 2016 July 31.0 TT = JDT 2457600.5                 MPC
M 347.35845              (2000.0)            P               Q
n   0.16758641     Peri.  185.78330     +0.93866156     -0.33272355
a   3.2581933      Node   194.66758     +0.32899276     +0.94279666
e   0.6379039      Incl.   20.96701     +0.10333561     +0.02072407
P   5.88           H   21.7           G   0.15           U   8
Residuals in seconds of arc
160926 D29  0.0   0.3+    160927 246  0.0   0.2-    160928 B74  0.5-  0.2+
160926 D29  0.2+  0.3-    160927 246  0.8+  0.3+    160928 958  0.7+  1.7-
160926 D29  0.2+  0.2-    160927 246  0.1+  0.2-    160928 958  0.6+  1.7-
160927 V03  0.2+  0.2-    160927 246  0.3-  0.7+    160928 958  0.2-  1.1-
160927 V03  0.4-  0.7+    160927 246  0.3-  0.6-    160929 658  0.7-  0.2-
160927 V03  0.1+  0.0     160927 204  0.1-  0.3-    160929 658  0.7-  0.3-
160927 V03  0.3+  0.4-    160927 C47  0.1-  0.1-    160929 658  0.7-  0.2-
160927 V03  0.1-  0.4+    160927 C47  0.2-  0.2-    160929 J95  0.1+  0.0
160927 C42  0.1+  0.2+    160927 204  0.0   0.1-    160929 L04  0.1-  0.4-
160927 C42  0.5-  0.2-    160927 C47  0.2-  0.2-    160929 587  0.2-  0.1+
160927 C42  0.2+  0.3+    160927 C47  0.2-  0.2-    160929 J95  0.6-  0.0
160927 C42  1.0-  1.2+    160927 204  0.1-  0.2-    160929 113  0.5-  0.5-
160927 C42  0.1-  1.4-    160927 C47  0.2-  0.1-    160929 113  0.2-  0.1-
160927 C42  1.0-  0.3+    160928 850  0.2+  0.3-    160929 L04  0.1-  0.3+
160927 C42  0.5+  0.5-    160928 850  1.1-  0.3-    160929 113  0.5-  0.8-
160927 C42  0.7-  0.2+    160928 850  0.4+  0.2-    160929 587  0.4-  0.5-
160927 C42  0.0   0.0     160928 850  0.0   0.2-    160929 J95  0.3+  0.2+
160927 C42  0.7-  1.0+    160928 160  0.4-  0.2+    160929 587  0.1+  0.2-
160927 104  0.3+  0.1-    160928 160  0.1-  0.1-    160929 L04  0.1+  0.2+
160927 104  0.1+  0.5-    160928 160  0.4-  0.8+    160929 246  1.3+  0.3+
160927 104  0.2-  0.2-    160928 160  0.6-  0.7+    160929 246  0.3+  0.6+
160927 246  0.2-  0.3-    160928 160  0.6-  0.5+    160929 246  0.1+  0.2+
160927 246  0.3-  0.4-    160928 160  0.7-  0.4-    160929 246  0.3+  0.0
160927 246  0.4+  0.1+    160928 B74  0.4-  0.5-    160929 246  0.3+  0.3-
160927 246  0.2-  0.0     160928 B74  0.0   0.2-    160929 246  0.7+  0.9+

Ephemeris:
2016 SE17                a,e,i = 3.26, 0.64, 21                  q = 1.1798
Date    TT    R. A. (2000) Decl.     Delta      r     Elong.  Phase     V
2016 08 30    22 17 21.9 +37 54 51   0.3923  1.3087   132.9    34.4    21.7
...
2016 09 14    22 49 37.5 +34 12 27   0.2839  1.2402   141.3    30.5    20.7
...
2016 09 22    23 17 15.5 +28 33 44   0.2361  1.2132   149.6    24.8    20.1
...
2016 09 28    23 43 26.4 +21 43 10   0.2079  1.1979   158.5    17.8    19.6
2016 09 29    23 48 13.5 +20 19 52   0.2040  1.1958   160.2    16.4    19.5
2016 09 30    23 53 07.0 +18 52 21   0.2005  1.1938   162.0    15.0    19.4
...
2016 10 06    00 24 16.3 +08 49 51   0.1860  1.1846   173.1     5.8    18.9
...
2016 10 14    01 07 38.9 -05 57 39   0.1873  1.1798   165.7    12.0    19.1
...
2016 10 29    02 17 10.9 -25 25 52   0.2451  1.1940   141.1    31.5    20.4

A. U. Tomatic                (C) Copyright 2016 MPC           M.P.E.C. 2016-S99




More information about the Iaude mailing list